Weather reports worldwide

Advertisment
Pershore, United Kingdom (3529): temperature & dewpoint: 16.08.2019 20:00:00 - 22.08.2019 20:00:00 (BST)Pershore, United Kingdom (3529): temperature -20cm & temperature -100cm: 16.08.2019 20:00:00 - 22.08.2019 20:00:00 (BST)Pershore, United Kingdom (3529): wind speed & gusts: 16.08.2019 20:00:00 - 22.08.2019 20:00:00 (BST)Pershore, United Kingdom (3529): wind direction: 16.08.2019 20:00:00 - 22.08.2019 20:00:00 (BST)Pershore, United Kingdom (3529): reduced air pressure: 16.08.2019 20:00:00 - 22.08.2019 20:00:00 (BST)Pershore, United Kingdom (3529): visibility: 16.08.2019 20:00:00 - 22.08.2019 20:00:00 (BST)Pershore, United Kingdom (3529): precipitation: 16.08.2019 20:00:00 - 22.08.2019 20:00:00 (BST)
Date & Time tt [°C] td [°C] tt -20cm [°C] tt -100cm [°C] ff [km/h] ff [kn] fx [km/h] fx [kn] dd ppp [hPa] vv [km] rr [mm]
22.08.2019 20:00:00 - - - - - - - - - - - -
22.08.2019 19:00:00 19,1 14,7 - - 21 11 - - SW 1023,7 40 0,0
22.08.2019 18:00:00 19,8 14,8 - - 16 9 - - SW 1023,5 35 0,0
22.08.2019 17:00:00 20,1 14,6 - - 21 11 - - SW 1023,6 25 0,0
22.08.2019 16:00:00 20,3 14,6 - - 21 11 - - SSW 1023,5 40 0,0
22.08.2019 15:00:00 20,1 15,3 - - 21 11 - - SSW 1023,6 45 0,0
22.08.2019 14:00:00 19,5 14,4 - - 18 10 - - SSW 1023,8 35 0,0
22.08.2019 13:00:00 19,2 14,4 - - 21 11 - - SSW 1024,0 30 0,0
22.08.2019 12:00:00 19,7 14,0 - - 26 14 - - SSW 1023,5 30 0,0
22.08.2019 11:00:00 18,6 14,3 - - 24 13 - - SSW 1023,5 29 0,0
22.08.2019 10:00:00 17,8 13,4 17,7 17,0 26 14 - - SW 1023,5 35 0,0
22.08.2019 09:00:00 16,8 13,4 - - 18 10 - - SSW 1023,3 26 0,0
22.08.2019 08:00:00 15,1 12,6 - - 16 9 - - SSW 1023,5 20 0,0
22.08.2019 07:00:00 14,3 12,2 - - 18 10 - - S 1023,0 28 0,0
22.08.2019 06:00:00 14,1 11,9 - - 15 8 - - S 1023,1 21 0,0
22.08.2019 05:00:00 14,0 12,0 - - 11 6 - - S 1023,3 18 0,0
22.08.2019 04:00:00 14,1 12,0 - - 15 8 - - S 1023,2 24 0,0
22.08.2019 03:00:00 14,0 11,3 - - 11 6 - - S 1023,6 30 0,0
22.08.2019 02:00:00 14,4 11,5 - - 13 7 - - SSW 1023,9 30 0,0
22.08.2019 01:00:00 14,7 11,5 - - 11 6 - - S 1023,9 27 0,0
22.08.2019 00:00:00 15,3 11,2 - - 11 6 - - SSW 1024,3 35 0,0
21.08.2019 23:00:00 15,7 11,6 - - 11 6 - - S 1024,5 40 0,0
21.08.2019 22:00:00 15,8 11,9 - - 8 4 - - SW 1024,8 28 0,0
21.08.2019 21:00:00 16,1 11,2 - - 8 4 - - SW 1024,6 27 0,0
21.08.2019 20:00:00 17,8 11,0 - - 9 5 - - SSW 1024,2 40 0,0
21.08.2019 19:00:00 19,1 11,0 - - 13 7 - - SSW 1024,0 35 0,0
21.08.2019 18:00:00 19,9 10,4 - - 18 10 - - SSW 1024,4 30 0,0
21.08.2019 17:00:00 20,6 9,3 - - 22 12 - - SSW 1024,7 35 0,0
21.08.2019 16:00:00 20,8 9,2 - - 24 13 - - SSW 1024,9 30 0,0
21.08.2019 15:00:00 20,8 10,3 - - 21 11 - - SSW 1025,2 29 0,0
21.08.2019 14:00:00 20,7 9,7 - - 22 12 - - S 1025,5 45 0,0
21.08.2019 13:00:00 20,9 11,7 - - 21 11 - - SSW 1026,1 22 0,0
21.08.2019 12:00:00 19,6 11,8 - - 18 10 - - SSW 1026,3 45 0,0
21.08.2019 11:00:00 18,4 13,1 - - 15 8 - - SW 1026,8 30 0,0
21.08.2019 10:00:00 16,5 13,6 17,7 17,0 16 9 - - SSW 1026,9 35 0,0
21.08.2019 09:00:00 14,4 13,2 - - 15 8 - - SSW 1027,0 16 0,0
21.08.2019 08:00:00 13,6 13,0 - - 13 7 - - SSW 1026,9 14 0,0
21.08.2019 07:00:00 12,6 12,2 - - 11 6 - - SSW 1026,5 13 0,0
21.08.2019 06:00:00 12,1 11,8 - - 9 5 - - S 1026,5 11 0,0
21.08.2019 05:00:00 12,2 11,7 - - 8 4 - - S 1026,4 20 0,0
21.08.2019 04:00:00 11,6 11,1 - - 8 4 - - S 1026,5 18 0,0
21.08.2019 03:00:00 12,3 11,6 - - 5 3 - - S 1026,5 16 0,0
21.08.2019 02:00:00 12,1 11,3 - - 9 5 - - SW 1026,4 16 0,0
21.08.2019 01:00:00 13,3 11,8 - - 11 6 - - SW 1026,2 18 0,0
21.08.2019 00:00:00 14,2 12,2 - - 13 7 - - SSW 1026,2 23 0,0
20.08.2019 23:00:00 13,9 11,9 - - 9 5 - - SSW 1026,2 26 0,0
20.08.2019 22:00:00 14,7 11,6 - - 8 4 - - S 1026,1 40 0,0
20.08.2019 21:00:00 15,6 11,0 - - 16 9 - - SW 1025,9 40 0,0
20.08.2019 20:00:00 17,0 9,6 - - 11 6 - - WSW 1025,2 28 0,0
20.08.2019 19:00:00 17,8 9,2 - - 15 8 - - WSW 1024,7 30 0,0
20.08.2019 18:00:00 18,5 8,0 - - 9 5 - - WSW 1024,2 40 0,0
20.08.2019 17:00:00 18,9 7,2 - - 11 6 - - WSW 1023,9 40 0,0
20.08.2019 16:00:00 19,4 7,1 - - 11 6 - - W 1023,9 40 0,0
20.08.2019 15:00:00 20,5 8,0 - - 11 6 - - W 1023,7 35 0,0
20.08.2019 14:00:00 19,9 7,2 - - 16 9 - - WNW 1023,6 35 0,0
20.08.2019 13:00:00 19,5 7,5 - - 15 8 - - W 1023,3 25 0,0
20.08.2019 12:00:00 16,9 6,5 - - 11 6 - - W 1023,3 35 0,0
20.08.2019 11:00:00 16,5 9,8 - - 11 6 - - WNW 1023,0 29 0,0
20.08.2019 10:00:00 16,4 10,4 17,7 17,0 13 7 - - WNW 1022,6 35 0,0
20.08.2019 09:00:00 14,4 11,0 - - 9 5 - - WSW 1021,7 28 0,0
20.08.2019 08:00:00 11,5 9,8 - - 8 4 - - S 1021,3 22 0,0
20.08.2019 07:00:00 9,9 9,0 - - 8 4 - - SW 1020,7 20 0,0
20.08.2019 06:00:00 10,0 8,8 - - 9 5 - - WSW 1020,0 21 0,0
20.08.2019 05:00:00 10,1 9,1 - - 9 5 - - SSW 1019,5 26 0,0
20.08.2019 04:00:00 11,2 9,8 - - 11 6 - - SSW 1019,3 25 0,0
20.08.2019 03:00:00 11,8 9,9 - - 13 7 - - SSW 1018,8 25 0,0
20.08.2019 02:00:00 12,2 9,9 - - 13 7 - - SW 1018,8 30 0,0
20.08.2019 01:00:00 12,5 9,7 - - 15 8 - - SW 1018,7 27 0,0
20.08.2019 00:00:00 12,1 9,4 - - 11 6 - - SW 1018,5 27 0,0
19.08.2019 23:00:00 13,1 9,4 - - 11 6 - - SSW 1018,2 30 0,0
19.08.2019 22:00:00 13,9 9,7 - - 8 4 - - SSW 1017,6 40 0,0
19.08.2019 21:00:00 14,3 9,4 - - 8 4 - - SW 1017,1 40 0,0
19.08.2019 20:00:00 16,0 9,0 - - 11 6 - - WSW 1016,4 40 0,0
19.08.2019 19:00:00 17,5 8,7 - - 21 11 - - WSW 1015,7 45 0,0
19.08.2019 18:00:00 19,0 8,7 - - 16 9 - - W 1015,1 30 0,0
19.08.2019 17:00:00 19,0 9,3 - - 16 9 - - W 1015,0 50 0,0
19.08.2019 16:00:00 18,0 9,8 - - 16 9 - - W 1014,8 50 0,0
19.08.2019 15:00:00 18,5 11,6 - - 15 8 - - W 1014,3 45 0,0
19.08.2019 14:00:00 16,8 13,6 - - 11 6 - - WSW 1014,2 50 1,0
19.08.2019 13:00:00 15,6 9,8 - - 18 10 - - W 1013,8 26 0,0
19.08.2019 12:00:00 17,2 12,4 - - 21 11 - - SSW 1013,0 28 0,0
19.08.2019 11:00:00 16,3 12,6 - - 11 6 - - SW 1012,8 30 0,0
19.08.2019 10:00:00 17,0 12,2 17,7 17,2 13 7 - - SW 1012,4 35 0,0
19.08.2019 09:00:00 15,1 12,3 - - 13 7 - - SW 1011,9 30 0,0
19.08.2019 08:00:00 14,0 12,3 - - 9 5 - - SSW 1011,3 25 0,0
19.08.2019 07:00:00 13,2 12,1 - - 9 5 - - SSE 1010,8 17 0,0
19.08.2019 06:00:00 13,0 11,9 - - 9 5 - - S 1010,3 14 0,0
19.08.2019 05:00:00 12,9 11,6 - - 11 6 - - S 1009,7 15 0,0
19.08.2019 04:00:00 13,0 11,2 - - 13 7 - - S 1009,2 16 0,0
19.08.2019 03:00:00 13,1 10,9 - - 13 7 - - SSW 1009,0 17 0,0
19.08.2019 02:00:00 12,9 10,5 - - 13 7 - - SSW 1009,0 17 0,0
19.08.2019 01:00:00 13,1 10,3 - - 13 7 - - S 1008,8 20 0,0
19.08.2019 00:00:00 13,0 9,9 - - 13 7 - - SSW 1008,3 20 0,0
18.08.2019 23:00:00 13,3 9,7 - - 13 7 - - SSW 1007,9 18 0,0
18.08.2019 22:00:00 14,1 9,9 - - 15 8 - - SSW 1007,4 21 0,0
18.08.2019 21:00:00 14,8 10,1 - - 15 8 - - SW 1006,8 26 0,0
18.08.2019 20:00:00 16,1 9,5 - - 16 9 - - SW 1006,0 28 0,0
18.08.2019 19:00:00 17,3 9,3 - - 24 13 48 26 SW 1005,9 35 0,0
18.08.2019 18:00:00 18,2 9,4 - - 26 14 - - WSW 1005,7 45 0,0
18.08.2019 17:00:00 16,9 10,0 - - 26 14 46 25 SW 1005,6 40 0,0
18.08.2019 16:00:00 19,0 8,7 - - 28 15 - - SW 1004,7 30 0,0
18.08.2019 15:00:00 19,3 11,1 - - 18 10 - - WSW 1004,4 35 0,0
18.08.2019 14:00:00 19,6 10,2 - - 24 13 - - SW 1003,9 30 0,0
18.08.2019 13:00:00 18,5 10,8 - - 16 9 - - WSW 1003,6 35 0,0
18.08.2019 12:00:00 17,4 10,6 - - 18 10 - - SW 1003,4 50 0,0
18.08.2019 11:00:00 17,0 11,1 - - 21 11 - - WSW 1003,1 45 0,0
18.08.2019 10:00:00 15,6 11,7 17,9 17,2 18 10 - - SW 1003,1 35 0,0
18.08.2019 09:00:00 15,6 12,9 - - 15 8 - - SSW 1002,4 30 0,0
18.08.2019 08:00:00 14,0 12,6 - - 13 7 - - S 1002,1 20 0,0
18.08.2019 07:00:00 13,3 11,5 - - 13 7 - - SSW 1002,2 16 0,0
18.08.2019 06:00:00 13,6 11,7 - - 9 5 - - S 1002,2 22 0,0
18.08.2019 05:00:00 13,4 11,5 - - 11 6 - - S 1002,3 20 0,0
18.08.2019 04:00:00 13,7 11,8 - - 9 5 - - S 1002,9 18 0,0
18.08.2019 03:00:00 14,0 11,9 - - 9 5 - - SSW 1002,9 22 0,0
18.08.2019 02:00:00 14,2 11,3 - - 8 4 - - S 1003,2 26 0,0
18.08.2019 01:00:00 14,3 10,7 - - 11 6 - - S 1003,8 30 0,0
18.08.2019 00:00:00 14,4 9,8 - - 9 5 - - SSW 1003,8 35 0,0
17.08.2019 23:00:00 15,3 10,1 - - 16 9 - - SSW 1004,4 27 0,0
17.08.2019 22:00:00 15,6 10,4 - - 15 8 - - SSW 1004,7 26 0,0
17.08.2019 21:00:00 15,6 9,4 - - 13 7 - - SW 1003,9 25 0,0
17.08.2019 20:00:00 16,8 9,4 - - 13 7 - - WSW 1004,2 28 0,0
17.08.2019 19:00:00 18,5 9,6 - - 16 9 - - SW 1004,1 29 0,0
17.08.2019 18:00:00 19,2 8,5 - - 16 9 - - SSW 1004,1 30 0,0
17.08.2019 17:00:00 19,5 10,2 - - 21 11 - - SW 1004,2 30 0,0
17.08.2019 16:00:00 20,8 9,0 - - 24 13 - - WSW 1004,1 35 0,0
17.08.2019 15:00:00 19,4 7,7 - - 16 9 - - WSW 1004,2 45 0,0
17.08.2019 14:00:00 19,3 7,7 - - 18 10 - - WSW 1004,2 30 0,0
17.08.2019 13:00:00 18,9 9,2 - - 15 8 - - W 1004,0 30 0,0
17.08.2019 12:00:00 18,8 10,0 - - 16 9 - - W 1004,0 30 0,0
17.08.2019 11:00:00 17,5 12,1 - - 15 8 - - W 1003,8 25 0,0
17.08.2019 10:00:00 18,6 14,7 17,7 17,2 16 9 - - SW 1003,3 29 0,0
17.08.2019 09:00:00 16,2 14,2 - - 21 11 - - SSW 1002,8 8 0,0
17.08.2019 08:00:00 15,5 13,8 - - 16 9 - - SSW 1002,6 17 0,0
17.08.2019 07:00:00 14,8 13,6 - - 15 8 - - SSW 1002,2 12 0,0
17.08.2019 06:00:00 13,7 12,5 - - 11 6 - - SSW 1002,2 12 0,0
17.08.2019 05:00:00 14,2 12,6 - - 15 8 - - SSW 1002,1 14 0,0
17.08.2019 04:00:00 13,7 12,4 - - 13 7 - - SSW 1002,0 20 0,0
17.08.2019 03:00:00 13,4 11,7 - - 11 6 - - SSW 1002,2 35 0,0
17.08.2019 02:00:00 13,9 11,8 - - 13 7 - - SW 1002,2 24 0,0
17.08.2019 01:00:00 15,1 11,9 - - 15 8 - - WSW 1001,9 40 0,0
17.08.2019 00:00:00 17,2 16,4 - - 18 10 - - SW 1001,6 50 0,0
16.08.2019 23:00:00 17,0 16,4 - - 22 12 - - SSW 1001,4 45 0,0
16.08.2019 22:00:00 17,1 16,4 - - 24 13 - - SSW 1001,7 40 0,2
16.08.2019 21:00:00 16,8 16,2 - - 21 11 - - SSW 1002,0 7 1,0
16.08.2019 20:00:00 16,7 16,0 - - 21 11 - - SSW 1002,2 16 2,8

tt = temperature
td = dewpoint
tt -20cm = temperature -20cm
tt -100cm = temperature -100cm
ff = wind speed
fx = gusts
dd = wind direction
ppp = reduced air pressure
vv = visibility
rr = precipitation

Next stations